Savoy, IL

3:17 AM CST on February 20, 2017 (GMT -0600)
Univ Of Illinois-Willard

Weather History for KCMI - July, 2014

Change the Weather History Date:

Thursday, July 3, 2014

  Actual Average Record
Temperature  
Mean Temperature 67 °F 74 °F  
Max Temperature 76 °F 85 °F 94 °F (2012)
Min Temperature 58 °F 64 °F 54 °F (2007)
Degree Days  
Heating Degree Days 0 0  
Month to date heating degree days 0 0  
Since 1 June heating degree days 0 17  
Since 1 July heating degree days 0 0  
Cooling Degree Days 2 10  
Month to date cooling degree days 14 29  
Year to date cooling degree days 447 344  
Since 1 June cooling degree days 295 252  
Growing Degree Days 17 (Base 50)    
Moisture  
Dew Point 57 °F    
Average Humidity 74    
Maximum Humidity 97    
Minimum Humidity 50    
Precipitation  
Precipitation T in 0.10 in 0.90 in (2001)
Month to date precipitation 0.75 0.30  
Year to date precipitation 21.63 19.63  
Sea Level Pressure  
Sea Level Pressure 30.12 in    
Wind  
Wind Speed 8 mph (NW)    
Max Wind Speed 15 mph    
Max Gust Speed 19 mph    
Visibility 9 miles    
Events Rain    
T = Trace of Precipitation, MM = Missing Value Source: NWS Daily Summary

Daily Weather History Graph

Daily Weather History Graph

Search for Another Location

Airport or City:

Trip Planner

Search our weather history database for the weather conditions in past years. The results will help you decide how hot, cold, wet, or windy it might be!

Date:

Astronomy

Jul. 03, 2014 Rise Set
Actual Time 5:28 AM CDT 8:25 PM CDT
Civil Twilight 4:56 AM CDT 8:58 PM CDT
Nautical Twilight 4:14 AM CDT 9:39 PM CDT
Astronomical Twilight 3:27 AM CDT 10:27 PM CDT
Moon 11:27 AM CDT (7/3) 11:47 PM CDT (7/3)
Length of Visible Light 16h 01m
Length of Day
14h 56m
Waxing Crescent, 33% of the Moon is Illuminated
Jul 3
Waxing Crescent
Jul 5
First Quarter
Jul 12
Full
Jul 18
Last Quarter
Jul 26
New

Hourly Weather History & Observations

Time (CDT) Temp. Dew Point Humidity Pressure Visibility Wind Dir Wind Speed Gust Speed Precip Events Conditions
12:44 AM 60.1 °F 57.9 °F 93% 30.06 in 10.0 mi West 9.2 mph - N/A   Overcast
12:53 AM 60.1 °F 57.9 °F 93% 30.06 in 10.0 mi West 9.2 mph - N/A   Overcast
12:57 AM 60.1 °F 59.0 °F 96% 30.06 in 10.0 mi West 6.9 mph - N/A   Overcast
1:07 AM 60.1 °F 57.9 °F 93% 30.06 in 10.0 mi West 6.9 mph - N/A   Overcast
1:15 AM 60.1 °F 57.9 °F 93% 30.06 in 10.0 mi West 8.1 mph - N/A   Overcast
1:53 AM 60.1 °F 57.9 °F 93% 30.05 in 10.0 mi West 9.2 mph - N/A   Overcast
2:33 AM 60.1 °F 57.9 °F 93% 30.05 in 10.0 mi West 9.2 mph - 0.00 in   Overcast
2:53 AM 60.1 °F 57.9 °F 93% 30.05 in 10.0 mi West 10.4 mph - 0.00 in   Overcast
3:49 AM 59.0 °F 57.2 °F 94% 30.05 in 7.0 mi West 8.1 mph - N/A   Mostly Cloudy
3:53 AM 59.0 °F 57.9 °F 96% 30.05 in 8.0 mi West 9.2 mph - N/A   Mostly Cloudy
4:12 AM 59.0 °F 57.9 °F 96% 30.06 in 9.0 mi WNW 11.5 mph - N/A   Overcast
4:33 AM 60.1 °F 57.9 °F 93% 30.06 in 10.0 mi West 9.2 mph - N/A   Overcast
4:53 AM 60.1 °F 59.0 °F 96% 30.06 in 9.0 mi West 9.2 mph - N/A   Overcast
5:53 AM 60.1 °F 57.9 °F 93% 30.09 in 7.0 mi WNW 10.4 mph - N/A   Overcast
6:53 AM 61.0 °F 59.0 °F 93% 30.09 in 9.0 mi WNW 10.4 mph - N/A   Overcast
7:53 AM 62.1 °F 60.1 °F 93% 30.11 in 3.0 mi NW 9.2 mph - 0.00 in Rain Light Rain
8:00 AM 61.0 °F 60.1 °F 97% 30.12 in 2.5 mi NNW 12.7 mph - 0.00 in Rain Light Rain
8:16 AM 62.1 °F 59.0 °F 90% 30.12 in 2.5 mi North 11.5 mph - 0.00 in Rain Light Rain
9:53 AM 64.9 °F 59.0 °F 81% 30.14 in 10.0 mi NNW 10.4 mph - N/A   Overcast
10:00 AM 66.0 °F 59.0 °F 78% 30.15 in 10.0 mi NNW 10.4 mph - N/A   Overcast
10:24 AM 68.0 °F 59.0 °F 73% 30.15 in 10.0 mi North 8.1 mph - N/A   Scattered Clouds
10:53 AM 69.1 °F 57.0 °F 65% 30.15 in 10.0 mi North 9.2 mph - N/A   Scattered Clouds
11:53 AM 71.1 °F 57.0 °F 61% 30.17 in 10.0 mi North 10.4 mph - N/A   Partly Cloudy
12:53 PM 73.9 °F 57.0 °F 55% 30.16 in 10.0 mi North - - N/A   Partly Cloudy
1:53 PM 71.1 °F 55.0 °F 57% 30.17 in 10.0 mi Variable 6.9 mph - N/A   Scattered Clouds
2:53 PM 73.0 °F 55.9 °F 55% 30.16 in 10.0 mi NNW 9.2 mph - N/A   Mostly Cloudy
3:53 PM 75.0 °F 55.0 °F 50% 30.16 in 10.0 mi North 9.2 mph - N/A   Mostly Cloudy
4:53 PM 73.9 °F 55.0 °F 52% 30.15 in 10.0 mi NNW 5.8 mph - N/A   Partly Cloudy
5:53 PM 73.9 °F 55.9 °F 53% 30.15 in 10.0 mi NW 5.8 mph - N/A   Partly Cloudy
6:53 PM 72.0 °F 55.9 °F 57% 30.16 in 10.0 mi NNW 6.9 mph - N/A   Clear
7:53 PM 69.1 °F 57.0 °F 65% 30.17 in 10.0 mi NNW 5.8 mph - N/A   Partly Cloudy
8:53 PM 64.9 °F 57.0 °F 75% 30.17 in 10.0 mi NNW 3.5 mph - N/A   Clear
9:53 PM 64.9 °F 55.9 °F 73% 30.19 in 10.0 mi North 3.5 mph - N/A   Clear
10:53 PM 60.1 °F 55.0 °F 83% 30.20 in 10.0 mi NNE 5.8 mph - N/A   Clear
11:53 PM 60.1 °F 52.0 °F 75% 30.21 in 10.0 mi NNE 4.6 mph - N/A   Clear